CCA2047 TXKF-KTPA

Flight info

Callsign CCA2047
Flight time 2h 29m
Altitude 38000
Route SOMRR1 ANTIG M328 TASNI DCT KANUX DCT FLUPS DCT SNAGY/N0480F380 M203 HOBEE AR6 HIBAC DADES2
Aircraft B77W/H-SDE1E2E3FGHIJ2J3J4J5M1RWXY/LB1D1

Departure

Time 2026-04-22 12:27
Airport L.F. Wade International Airport (TXKF)

Arrival

Time 2026-04-22 14:56
Airport Tampa International Airport (KTPA)
Time Latitude Longitude Altitude Speed Heading
2026-04-22 12:12 32.36232 -64.70261 30 ft 3 kts 240°
2026-04-22 12:12 32.36248 -64.70237 30 ft 3 kts 224°
2026-04-22 12:12 32.36268 -64.70219 31 ft 3 kts 206°
2026-04-22 12:13 32.36292 -64.70211 31 ft 3 kts 180°
2026-04-22 12:13 32.36315 -64.70219 30 ft 3 kts 156°
2026-04-22 12:13 32.36343 -64.70229 30 ft 4 kts 160°
2026-04-22 12:13 32.36356 -64.70235 29 ft 0 kts 160°
2026-04-22 12:19 32.36354 -64.70233 29 ft 1 kts 159°
2026-04-22 12:19 32.36322 -64.70219 30 ft 5 kts 156°
2026-04-22 12:19 32.36291 -64.70198 31 ft 4 kts 141°
2026-04-22 12:20 32.36277 -64.70157 31 ft 6 kts 85°
2026-04-22 12:20 32.36294 -64.70090 31 ft 9 kts 69°
2026-04-22 12:20 32.36319 -64.70015 31 ft 11 kts 68°
2026-04-22 12:20 32.36350 -64.69923 31 ft 14 kts 67°
2026-04-22 12:21 32.36390 -64.69813 30 ft 13 kts 66°
2026-04-22 12:21 32.36431 -64.69703 29 ft 14 kts 68°
2026-04-22 12:21 32.36470 -64.69589 28 ft 14 kts 68°
2026-04-22 12:21 32.36508 -64.69480 28 ft 13 kts 66°
2026-04-22 12:22 32.36546 -64.69376 29 ft 12 kts 67°
2026-04-22 12:22 32.36585 -64.69263 29 ft 16 kts 69°
2026-04-22 12:22 32.36611 -64.69127 29 ft 16 kts 95°
2026-04-22 12:22 32.36597 -64.68993 29 ft 15 kts 98°
2026-04-22 12:23 32.36570 -64.68848 28 ft 21 kts 101°
2026-04-22 12:23 32.36537 -64.68644 29 ft 24 kts 101°
2026-04-22 12:23 32.36502 -64.68443 28 ft 23 kts 102°
2026-04-22 12:23 32.36469 -64.68253 29 ft 22 kts 101°
2026-04-22 12:24 32.36436 -64.68053 32 ft 25 kts 100°
2026-04-22 12:24 32.36407 -64.67851 35 ft 22 kts 99°
2026-04-22 12:24 32.36372 -64.67671 35 ft 21 kts 103°
2026-04-22 12:24 32.36331 -64.67445 31 ft 34 kts 101°
2026-04-22 12:25 32.36282 -64.67161 29 ft 35 kts 103°
2026-04-22 12:25 32.36233 -64.66871 29 ft 34 kts 101°
2026-04-22 12:25 32.36187 -64.66608 29 ft 27 kts 100°
2026-04-22 12:25 32.36163 -64.66455 29 ft 12 kts 94°
2026-04-22 12:26 32.36154 -64.66383 30 ft 3 kts 136°
2026-04-22 12:26 32.36136 -64.66394 29 ft 2 kts 263°
2026-04-22 12:26 32.36145 -64.66409 29 ft 3 kts 315°
2026-04-22 12:26 32.36162 -64.66452 29 ft 8 kts 288°
2026-04-22 12:27 32.36179 -64.66562 28 ft 28 kts 281°
2026-04-22 12:27 32.36277 -64.67114 29 ft 104 kts 281°
2026-04-22 12:27 32.36459 -64.68223 82 ft 159 kts 283°
2026-04-22 12:27 32.36683 -64.69551 737 ft 163 kts 285°
2026-04-22 12:28 32.36882 -64.70898 1494 ft 166 kts 285°
2026-04-22 12:28 32.37117 -64.72309 1965 ft 177 kts 288°
2026-04-22 12:28 32.37402 -64.73811 2445 ft 191 kts 287°
2026-04-22 12:28 32.37700 -64.75464 2838 ft 215 kts 288°
2026-04-22 12:29 32.38032 -64.77291 3501 ft 225 kts 287°
2026-04-22 12:29 32.38361 -64.79153 4082 ft 240 kts 286°
2026-04-22 12:29 32.38628 -64.81154 4672 ft 257 kts 274°
2026-04-22 12:29 32.38548 -64.83307 5381 ft 266 kts 270°
2026-04-22 12:30 32.38303 -64.87640 7057 ft 272 kts 270°
2026-04-22 12:30 32.38183 -64.89852 7840 ft 275 kts 270°
2026-04-22 12:30 32.38071 -64.92127 8642 ft 278 kts 271°
2026-04-22 12:31 32.37961 -64.94413 9446 ft 281 kts 271°
2026-04-22 12:31 32.37844 -64.96709 10235 ft 283 kts 271°
2026-04-22 12:31 32.37724 -64.99081 10732 ft 297 kts 271°
2026-04-22 12:31 32.37597 -65.01566 11213 ft 313 kts 270°
2026-04-22 12:32 32.37460 -65.04173 11731 ft 328 kts 270°
2026-04-22 12:32 32.37190 -65.09758 12885 ft 356 kts 272°
2026-04-22 12:32 32.37198 -65.12755 13520 ft 370 kts 274°
2026-04-22 12:33 32.37221 -65.15826 14290 ft 381 kts 273°
2026-04-22 12:33 32.37234 -65.18941 15241 ft 388 kts 273°
2026-04-22 12:33 32.37241 -65.22125 16317 ft 392 kts 272°
2026-04-22 12:33 32.37244 -65.25347 17364 ft 397 kts 272°
2026-04-22 12:34 32.37246 -65.28630 18379 ft 402 kts 272°
2026-04-22 12:34 32.37246 -65.31901 19392 ft 406 kts 272°
2026-04-22 12:34 32.37244 -65.35255 20389 ft 411 kts 272°
2026-04-22 12:34 32.37240 -65.38634 21350 ft 416 kts 272°
2026-04-22 12:35 32.37236 -65.42058 22253 ft 421 kts 272°
2026-04-22 12:35 32.37230 -65.45521 23173 ft 425 kts 271°
2026-04-22 12:35 32.37223 -65.48971 24082 ft 429 kts 271°
2026-04-22 12:35 32.37216 -65.52499 24899 ft 434 kts 271°
2026-04-22 12:36 32.37207 -65.56122 25663 ft 440 kts 271°
2026-04-22 12:36 32.37196 -65.59714 26444 ft 445 kts 271°
2026-04-22 12:36 32.37185 -65.63382 27271 ft 449 kts 271°
2026-04-22 12:36 32.37172 -65.67084 28040 ft 453 kts 271°
2026-04-22 12:37 32.37173 -65.70821 28779 ft 458 kts 271°
2026-04-22 12:37 32.37186 -65.74576 29530 ft 462 kts 271°
2026-04-22 12:37 32.37197 -65.78364 30454 ft 462 kts 272°
2026-04-22 12:37 32.37207 -65.82091 31548 ft 455 kts 271°
2026-04-22 12:38 32.37215 -65.85806 32692 ft 447 kts 272°
2026-04-22 12:38 32.37221 -65.89385 33691 ft 440 kts 272°
2026-04-22 12:38 32.37227 -65.92960 34513 ft 435 kts 272°
2026-04-22 12:38 32.37232 -65.96558 35088 ft 434 kts 271°
2026-04-22 12:39 32.37236 -66.00120 35573 ft 434 kts 271°
2026-04-22 12:39 32.37239 -66.07239 36765 ft 431 kts 271°
2026-04-22 12:39 32.37240 -66.10786 37320 ft 429 kts 271°
2026-04-22 12:40 32.37239 -66.14297 37745 ft 429 kts 271°
2026-04-22 12:40 32.37237 -66.17849 38122 ft 430 kts 271°
2026-04-22 12:40 32.37235 -66.21375 38207 ft 432 kts 271°
2026-04-22 12:41 32.37226 -66.28423 38215 ft 429 kts 271°
2026-04-22 12:41 32.37214 -66.35461 38218 ft 429 kts 271°
2026-04-22 12:42 32.37087 -66.42523 38215 ft 430 kts 266°
2026-04-22 12:42 32.35675 -66.49371 38213 ft 435 kts 252°
2026-04-22 12:43 32.32746 -66.55703 38209 ft 443 kts 242°
2026-04-22 12:43 32.29390 -66.61796 38219 ft 442 kts 242°
2026-04-22 12:44 32.26030 -66.67868 38220 ft 442 kts 241°
2026-04-22 12:44 32.22643 -66.73978 38224 ft 442 kts 241°
2026-04-22 12:45 32.19302 -66.79994 38226 ft 443 kts 241°
2026-04-22 12:45 32.15914 -66.86081 38219 ft 442 kts 241°
2026-04-22 12:46 32.12549 -66.92118 38221 ft 441 kts 241°
2026-04-22 12:46 32.09171 -66.98169 38225 ft 442 kts 241°
2026-04-22 12:47 32.05767 -67.04284 38237 ft 442 kts 242°
2026-04-22 12:47 32.02406 -67.10332 38243 ft 441 kts 241°
2026-04-22 12:48 31.99031 -67.16394 38244 ft 442 kts 242°
2026-04-22 12:48 31.95671 -67.22417 38246 ft 440 kts 242°
2026-04-22 12:49 31.92294 -67.28461 38244 ft 440 kts 242°
2026-04-22 12:49 31.88927 -67.34480 38244 ft 441 kts 242°
2026-04-22 12:50 31.85548 -67.40509 38242 ft 441 kts 242°
2026-04-22 12:50 31.82190 -67.46489 38241 ft 441 kts 242°
2026-04-22 12:51 31.78810 -67.52502 38243 ft 440 kts 242°
2026-04-22 12:51 31.75418 -67.58525 38241 ft 440 kts 242°
2026-04-22 12:52 31.72057 -67.64484 38241 ft 440 kts 242°
2026-04-22 12:52 31.68646 -67.70523 38252 ft 440 kts 241°
2026-04-22 12:53 31.65263 -67.76503 38259 ft 441 kts 241°
2026-04-22 12:53 31.61885 -67.82464 38254 ft 440 kts 241°
2026-04-22 12:54 31.58477 -67.88469 38254 ft 440 kts 242°
2026-04-22 12:54 31.55088 -67.94431 38251 ft 439 kts 242°
2026-04-22 12:55 31.51695 -68.00389 38255 ft 439 kts 242°
2026-04-22 12:55 31.48306 -68.06334 38261 ft 440 kts 242°
2026-04-22 12:56 31.45229 -68.12439 38242 ft 437 kts 245°
2026-04-22 12:56 31.42201 -68.18628 38245 ft 440 kts 245°
2026-04-22 12:57 31.39103 -68.24918 38239 ft 453 kts 245°
2026-04-22 12:57 31.35937 -68.31305 38250 ft 452 kts 245°
2026-04-22 12:58 31.32797 -68.37618 38244 ft 451 kts 245°
2026-04-22 12:58 31.29628 -68.43975 38240 ft 452 kts 245°
2026-04-22 12:59 31.26476 -68.50285 38248 ft 450 kts 245°
2026-04-22 12:59 31.23325 -68.56584 38242 ft 451 kts 245°
2026-04-22 13:00 31.20170 -68.62878 38239 ft 451 kts 245°
2026-04-22 13:00 31.16993 -68.69206 38258 ft 451 kts 244°
2026-04-22 13:01 31.13835 -68.75487 38253 ft 450 kts 244°
2026-04-22 13:01 31.10664 -68.81781 38245 ft 451 kts 244°
2026-04-22 13:02 31.07479 -68.88094 38250 ft 451 kts 244°
2026-04-22 13:02 31.04314 -68.94357 38261 ft 450 kts 244°
2026-04-22 13:03 31.01141 -69.00626 38262 ft 450 kts 244°
2026-04-22 13:03 30.97965 -69.06889 38269 ft 450 kts 244°
2026-04-22 13:04 30.94771 -69.13178 38260 ft 450 kts 244°
2026-04-22 13:04 30.91683 -69.19436 38258 ft 446 kts 249°
2026-04-22 13:05 30.89747 -69.26204 38265 ft 439 kts 263°
2026-04-22 13:05 30.89035 -69.33204 38262 ft 437 kts 267°
2026-04-22 13:06 30.88422 -69.40261 38264 ft 436 kts 267°
2026-04-22 13:06 30.87799 -69.47272 38261 ft 436 kts 267°
2026-04-22 13:07 30.87168 -69.54270 38260 ft 435 kts 267°
2026-04-22 13:07 30.86531 -69.61269 38263 ft 435 kts 267°
2026-04-22 13:08 30.85893 -69.68218 38278 ft 435 kts 266°
2026-04-22 13:08 30.85249 -69.75191 38274 ft 435 kts 266°
2026-04-22 13:09 30.84597 -69.82199 38274 ft 435 kts 266°
2026-04-22 13:09 30.83946 -69.89152 38274 ft 435 kts 267°
2026-04-22 13:10 30.83284 -69.96181 38261 ft 436 kts 266°
2026-04-22 13:10 30.82619 -70.03201 38255 ft 435 kts 266°
2026-04-22 13:11 30.81957 -70.10155 38262 ft 435 kts 266°
2026-04-22 13:11 30.81286 -70.17155 38262 ft 435 kts 266°
2026-04-22 13:12 30.80615 -70.24113 38261 ft 434 kts 267°
2026-04-22 13:12 30.79938 -70.31099 38263 ft 434 kts 266°
2026-04-22 13:13 30.79259 -70.38065 38264 ft 434 kts 266°
2026-04-22 13:13 30.78581 -70.44986 38265 ft 434 kts 266°
2026-04-22 13:14 30.77893 -70.51963 38275 ft 434 kts 266°
2026-04-22 13:14 30.77205 -70.58901 38278 ft 434 kts 267°
2026-04-22 13:15 30.76512 -70.65855 38276 ft 434 kts 266°
2026-04-22 13:15 30.75812 -70.72836 38287 ft 434 kts 266°
2026-04-22 13:16 30.75111 -70.79795 38288 ft 434 kts 266°
2026-04-22 13:16 30.74405 -70.86760 38294 ft 434 kts 266°
2026-04-22 13:17 30.73698 -70.93710 38295 ft 435 kts 266°
2026-04-22 13:17 30.72984 -71.00678 38291 ft 433 kts 266°
2026-04-22 13:18 30.72270 -71.07612 38293 ft 434 kts 266°
2026-04-22 13:18 30.71544 -71.14623 38295 ft 435 kts 266°
2026-04-22 13:19 30.70821 -71.21574 38289 ft 434 kts 266°
2026-04-22 13:19 30.70096 -71.28500 38286 ft 433 kts 266°
2026-04-22 13:20 30.69364 -71.35465 38284 ft 434 kts 266°
2026-04-22 13:20 30.68635 -71.42361 38280 ft 433 kts 266°
2026-04-22 13:21 30.67894 -71.49333 38280 ft 433 kts 266°
2026-04-22 13:21 30.67154 -71.56261 38282 ft 434 kts 266°
2026-04-22 13:22 30.66411 -71.63191 38280 ft 433 kts 266°
2026-04-22 13:22 30.65662 -71.70129 38293 ft 433 kts 266°
2026-04-22 13:23 30.64914 -71.77029 38292 ft 433 kts 266°
2026-04-22 13:23 30.64161 -71.83939 38295 ft 433 kts 266°
2026-04-22 13:24 30.63404 -71.90843 38294 ft 434 kts 266°
2026-04-22 13:24 30.62637 -71.97819 38287 ft 434 kts 266°
2026-04-22 13:25 30.61873 -72.04721 38284 ft 434 kts 266°
2026-04-22 13:25 30.61105 -72.11628 38279 ft 433 kts 266°
2026-04-22 13:26 30.60328 -72.18581 38278 ft 434 kts 265°
2026-04-22 13:26 30.59552 -72.25494 38281 ft 432 kts 266°
2026-04-22 13:27 30.58773 -72.32398 38282 ft 434 kts 266°
2026-04-22 13:27 30.57991 -72.39298 38280 ft 434 kts 266°
2026-04-22 13:28 30.57199 -72.46250 38281 ft 434 kts 265°
2026-04-22 13:28 30.56406 -72.53178 38282 ft 433 kts 266°
2026-04-22 13:29 30.55996 -72.60088 38285 ft 431 kts 274°
2026-04-22 13:29 30.56137 -72.67024 38302 ft 430 kts 273°
2026-04-22 13:30 30.56267 -72.73962 38306 ft 431 kts 273°
2026-04-22 13:30 30.56385 -72.80902 38303 ft 430 kts 273°
2026-04-22 13:31 30.56495 -72.87794 38303 ft 432 kts 273°
2026-04-22 13:31 30.56599 -72.94743 38305 ft 430 kts 273°
2026-04-22 13:32 30.56699 -73.01659 38299 ft 430 kts 273°
2026-04-22 13:32 30.56794 -73.08597 38299 ft 431 kts 273°
2026-04-22 13:33 30.56885 -73.15524 38301 ft 430 kts 273°
2026-04-22 13:33 30.56972 -73.22421 38300 ft 431 kts 273°
2026-04-22 13:34 30.57056 -73.29380 38297 ft 430 kts 274°
2026-04-22 13:34 30.57136 -73.36274 38296 ft 431 kts 273°
2026-04-22 13:35 30.57213 -73.43207 38296 ft 430 kts 273°
2026-04-22 13:35 30.57286 -73.50188 38294 ft 430 kts 273°
2026-04-22 13:36 30.57355 -73.57129 38290 ft 430 kts 273°
2026-04-22 13:36 30.57420 -73.64054 38293 ft 431 kts 273°
2026-04-22 13:37 30.57482 -73.70956 38307 ft 430 kts 273°
2026-04-22 13:37 30.57540 -73.77886 38304 ft 429 kts 272°
2026-04-22 13:38 30.57594 -73.84793 38307 ft 430 kts 273°
2026-04-22 13:38 30.57336 -73.95116 38296 ft 433 kts 264°
2026-04-22 13:39 30.55654 -74.01924 38304 ft 440 kts 255°
2026-04-22 13:39 30.53552 -74.08531 38302 ft 439 kts 255°
2026-04-22 13:40 30.51426 -74.15176 38305 ft 440 kts 255°
2026-04-22 13:40 30.49291 -74.21825 38302 ft 440 kts 255°
2026-04-22 13:41 30.47152 -74.28472 38306 ft 441 kts 255°
2026-04-22 13:41 30.45019 -74.35083 38301 ft 439 kts 255°
2026-04-22 13:42 30.42879 -74.41704 38302 ft 439 kts 255°
2026-04-22 13:42 30.40748 -74.48282 38297 ft 440 kts 255°
2026-04-22 13:43 30.38592 -74.54921 38288 ft 438 kts 255°
2026-04-22 13:43 30.36453 -74.61500 38278 ft 440 kts 255°
2026-04-22 13:44 30.34314 -74.68061 38300 ft 439 kts 254°
2026-04-22 13:44 30.32158 -74.74663 38297 ft 438 kts 254°
2026-04-22 13:45 30.30011 -74.81225 38299 ft 438 kts 255°
2026-04-22 13:45 30.27848 -74.87823 38300 ft 438 kts 255°
2026-04-22 13:46 30.25697 -74.94371 38296 ft 438 kts 254°
2026-04-22 13:46 30.23540 -75.00925 38304 ft 438 kts 255°
2026-04-22 13:47 30.21369 -75.07510 38304 ft 439 kts 255°
2026-04-22 13:47 30.19187 -75.14112 38306 ft 439 kts 254°
2026-04-22 13:48 30.17010 -75.20686 38296 ft 438 kts 255°
2026-04-22 13:48 30.14843 -75.27220 38303 ft 438 kts 255°
2026-04-22 13:49 30.12667 -75.33765 38291 ft 436 kts 254°
2026-04-22 13:49 30.10486 -75.40319 38296 ft 439 kts 254°
2026-04-22 13:50 30.08299 -75.46873 38298 ft 436 kts 254°
2026-04-22 13:50 30.06117 -75.53399 38292 ft 439 kts 254°
2026-04-22 13:51 30.03927 -75.59936 38298 ft 437 kts 255°
2026-04-22 13:51 30.01730 -75.66484 38306 ft 439 kts 254°
2026-04-22 13:52 29.99529 -75.73030 38301 ft 438 kts 254°
2026-04-22 13:52 29.97325 -75.79573 38305 ft 437 kts 254°
2026-04-22 13:53 29.95125 -75.86091 38307 ft 436 kts 254°
2026-04-22 13:53 29.92920 -75.92612 38457 ft 438 kts 254°
2026-04-22 13:54 29.91810 -75.95893 38295 ft 437 kts 254°
2026-04-22 13:54 29.90710 -75.99134 38301 ft 435 kts 254°
2026-04-22 13:54 29.88498 -76.05655 38298 ft 437 kts 254°
2026-04-22 13:55 29.86289 -76.12149 38297 ft 436 kts 254°
2026-04-22 13:55 29.84078 -76.18637 38300 ft 436 kts 253°
2026-04-22 13:56 29.82981 -76.21854 38123 ft 436 kts 254°
2026-04-22 13:56 29.81870 -76.25108 38307 ft 438 kts 253°
2026-04-22 13:56 29.79647 -76.31609 38314 ft 438 kts 253°
2026-04-22 13:57 29.77428 -76.38084 38286 ft 437 kts 253°
2026-04-22 13:57 29.75188 -76.44611 38268 ft 440 kts 253°
2026-04-22 13:58 29.72951 -76.51112 38277 ft 437 kts 253°
2026-04-22 13:58 29.70724 -76.57577 38272 ft 438 kts 254°
2026-04-22 13:59 29.68472 -76.64101 38276 ft 438 kts 253°
2026-04-22 13:59 29.66224 -76.70602 38286 ft 439 kts 253°
2026-04-22 14:00 29.63974 -76.77094 38287 ft 439 kts 253°
2026-04-22 14:00 29.61707 -76.83627 38280 ft 440 kts 253°
2026-04-22 14:01 29.60200 -76.90356 38276 ft 431 kts 265°
2026-04-22 14:01 29.59431 -76.97218 38284 ft 432 kts 266°
2026-04-22 14:02 29.58657 -77.04028 38279 ft 431 kts 265°
2026-04-22 14:02 29.57871 -77.10813 38409 ft 431 kts 265°
2026-04-22 14:03 29.57470 -77.14239 38273 ft 432 kts 265°
2026-04-22 14:03 29.57071 -77.17633 38128 ft 430 kts 266°
2026-04-22 14:03 29.56671 -77.21027 38430 ft 432 kts 265°
2026-04-22 14:03 29.56267 -77.24438 38273 ft 434 kts 265°
2026-04-22 14:04 29.55453 -77.31284 38358 ft 434 kts 265°
2026-04-22 14:04 29.54636 -77.38113 38271 ft 430 kts 265°
2026-04-22 14:05 29.53820 -77.44904 38270 ft 431 kts 265°
2026-04-22 14:06 29.52589 -77.55093 38272 ft 431 kts 265°
2026-04-22 14:06 29.51762 -77.61893 38266 ft 430 kts 265°
2026-04-22 14:07 29.50935 -77.68665 38282 ft 431 kts 265°
2026-04-22 14:07 29.50102 -77.75460 38289 ft 431 kts 265°
2026-04-22 14:08 29.49268 -77.82235 38277 ft 430 kts 265°
2026-04-22 14:08 29.48428 -77.89023 38282 ft 432 kts 265°
2026-04-22 14:09 29.47584 -77.95818 38278 ft 430 kts 265°
2026-04-22 14:09 29.46733 -78.02643 38287 ft 432 kts 265°
2026-04-22 14:10 29.45884 -78.09422 38281 ft 429 kts 265°
2026-04-22 14:10 29.45034 -78.16180 38285 ft 431 kts 265°
2026-04-22 14:11 29.44173 -78.22991 38287 ft 431 kts 265°
2026-04-22 14:11 29.43310 -78.29792 38277 ft 430 kts 265°
2026-04-22 14:12 29.42447 -78.36570 38277 ft 430 kts 265°
2026-04-22 14:12 29.41583 -78.43320 38274 ft 430 kts 265°
2026-04-22 14:13 29.40710 -78.50123 38278 ft 432 kts 265°
2026-04-22 14:13 29.39598 -78.56828 38272 ft 435 kts 257°
2026-04-22 14:14 29.37676 -78.63390 38273 ft 436 kts 256°
2026-04-22 14:14 29.35696 -78.69990 38289 ft 438 kts 255°
2026-04-22 14:15 29.33702 -78.76549 38294 ft 436 kts 255°
2026-04-22 14:15 29.31709 -78.83092 38292 ft 438 kts 255°
2026-04-22 14:16 29.29697 -78.89690 38283 ft 437 kts 255°
2026-04-22 14:16 29.27711 -78.96242 38287 ft 437 kts 255°
2026-04-22 14:17 29.25732 -79.02797 38282 ft 437 kts 255°
2026-04-22 14:17 29.23744 -79.09367 38274 ft 437 kts 255°
2026-04-22 14:18 29.21965 -79.15981 38267 ft 434 kts 257°
2026-04-22 14:18 29.19953 -79.22457 38183 ft 427 kts 254°
2026-04-22 14:18 29.18953 -79.25577 37960 ft 414 kts 254°
2026-04-22 14:19 29.17975 -79.28638 37091 ft 412 kts 254°
2026-04-22 14:19 29.16992 -79.31727 35895 ft 421 kts 254°
2026-04-22 14:19 29.16011 -79.34925 34641 ft 430 kts 255°
2026-04-22 14:19 29.15042 -79.38152 33476 ft 437 kts 254°
2026-04-22 14:20 29.13049 -79.44765 31376 ft 447 kts 254°
2026-04-22 14:20 29.12025 -79.48154 30416 ft 449 kts 253°
2026-04-22 14:20 29.11010 -79.51507 29760 ft 444 kts 253°
2026-04-22 14:21 29.09026 -79.58045 28626 ft 433 kts 253°
2026-04-22 14:21 29.08040 -79.61300 27936 ft 430 kts 253°
2026-04-22 14:22 29.06100 -79.67699 26577 ft 425 kts 253°
2026-04-22 14:22 29.05147 -79.70837 25986 ft 421 kts 253°
2026-04-22 14:22 29.03241 -79.77102 24760 ft 419 kts 253°
2026-04-22 14:23 29.02279 -79.80261 24340 ft 419 kts 253°
2026-04-22 14:23 29.01331 -79.83373 24104 ft 413 kts 253°
2026-04-22 14:23 29.00404 -79.86407 23641 ft 406 kts 253°
2026-04-22 14:23 28.99478 -79.89438 22934 ft 406 kts 253°
2026-04-22 14:24 28.98551 -79.92471 22215 ft 406 kts 253°
2026-04-22 14:24 28.97627 -79.95493 21602 ft 404 kts 252°
2026-04-22 14:24 28.96696 -79.98526 21031 ft 400 kts 252°
2026-04-22 14:24 28.95772 -80.01483 20447 ft 397 kts 251°
2026-04-22 14:25 28.94845 -80.04437 19854 ft 394 kts 251°
2026-04-22 14:25 28.93927 -80.07362 19264 ft 391 kts 251°
2026-04-22 14:25 28.93018 -80.10254 18671 ft 388 kts 251°
2026-04-22 14:25 28.92121 -80.13109 18097 ft 385 kts 250°
2026-04-22 14:26 28.91219 -80.15978 17491 ft 383 kts 250°
2026-04-22 14:26 28.90329 -80.18808 17060 ft 377 kts 250°
2026-04-22 14:26 28.89436 -80.21644 17008 ft 381 kts 250°
2026-04-22 14:26 28.88542 -80.24477 16998 ft 381 kts 250°
2026-04-22 14:27 28.87641 -80.27337 16998 ft 381 kts 250°
2026-04-22 14:27 28.86748 -80.30164 16996 ft 381 kts 250°
2026-04-22 14:27 28.85843 -80.33029 16997 ft 381 kts 250°
2026-04-22 14:27 28.84951 -80.35850 16995 ft 381 kts 250°
2026-04-22 14:28 28.84056 -80.38680 16993 ft 381 kts 250°
2026-04-22 14:28 28.83158 -80.41515 17000 ft 381 kts 250°
2026-04-22 14:28 28.82251 -80.44377 16995 ft 382 kts 250°
2026-04-22 14:28 28.81359 -80.47189 16996 ft 381 kts 250°
2026-04-22 14:29 28.80457 -80.50030 16995 ft 381 kts 250°
2026-04-22 14:29 28.79553 -80.52873 16996 ft 381 kts 250°
2026-04-22 14:29 28.78642 -80.55739 16999 ft 382 kts 250°
2026-04-22 14:29 28.77739 -80.58568 16986 ft 382 kts 249°
2026-04-22 14:30 28.76738 -80.61368 16793 ft 383 kts 248°
2026-04-22 14:30 28.75714 -80.64148 16602 ft 380 kts 248°
2026-04-22 14:30 28.74695 -80.66922 16442 ft 379 kts 247°
2026-04-22 14:30 28.73669 -80.69723 16275 ft 379 kts 247°
2026-04-22 14:31 28.72662 -80.72476 16091 ft 378 kts 247°
2026-04-22 14:31 28.71658 -80.75221 15930 ft 377 kts 247°
2026-04-22 14:31 28.70644 -80.77998 15764 ft 377 kts 247°
2026-04-22 14:31 28.69644 -80.80736 15600 ft 376 kts 247°
2026-04-22 14:32 28.68647 -80.83464 15432 ft 376 kts 247°
2026-04-22 14:32 28.67637 -80.86228 15264 ft 376 kts 247°
2026-04-22 14:32 28.66634 -80.88970 15096 ft 375 kts 247°
2026-04-22 14:32 28.65640 -80.91684 14949 ft 375 kts 247°
2026-04-22 14:33 28.64638 -80.94411 14757 ft 375 kts 246°
2026-04-22 14:33 28.63548 -80.97096 14604 ft 375 kts 244°
2026-04-22 14:33 28.62433 -80.99777 14442 ft 374 kts 244°
2026-04-22 14:33 28.61327 -81.02439 14268 ft 374 kts 244°
2026-04-22 14:34 28.60215 -81.05122 14102 ft 374 kts 244°
2026-04-22 14:34 28.59107 -81.07800 13942 ft 373 kts 245°
2026-04-22 14:34 28.58008 -81.10461 13778 ft 371 kts 244°
2026-04-22 14:34 28.56910 -81.13118 13612 ft 371 kts 244°
2026-04-22 14:35 28.55811 -81.15780 13440 ft 370 kts 244°
2026-04-22 14:35 28.54714 -81.18433 13277 ft 370 kts 244°
2026-04-22 14:35 28.53619 -81.21081 13111 ft 370 kts 244°
2026-04-22 14:35 28.52538 -81.23695 12942 ft 370 kts 244°
2026-04-22 14:36 28.51435 -81.26360 12775 ft 370 kts 244°
2026-04-22 14:36 28.50350 -81.28979 12608 ft 369 kts 244°
2026-04-22 14:36 28.49259 -81.31650 12437 ft 369 kts 247°
2026-04-22 14:36 28.48503 -81.34411 12280 ft 369 kts 255°
2026-04-22 14:37 28.47897 -81.37259 12119 ft 369 kts 256°
2026-04-22 14:37 28.47306 -81.40091 11959 ft 369 kts 256°
2026-04-22 14:37 28.46716 -81.42909 11796 ft 368 kts 256°
2026-04-22 14:37 28.46122 -81.45743 11630 ft 368 kts 256°
2026-04-22 14:38 28.45530 -81.48559 11469 ft 368 kts 256°
2026-04-22 14:38 28.44935 -81.51383 11304 ft 367 kts 256°
2026-04-22 14:38 28.44342 -81.54196 11140 ft 366 kts 256°
2026-04-22 14:38 28.43753 -81.56988 10978 ft 366 kts 256°
2026-04-22 14:39 28.43160 -81.59795 10816 ft 366 kts 256°
2026-04-22 14:39 28.42566 -81.62602 10652 ft 357 kts 256°
2026-04-22 14:39 28.41998 -81.65286 10493 ft 344 kts 255°
2026-04-22 14:40 28.41095 -81.69545 10247 ft 324 kts 255°
2026-04-22 14:40 28.40406 -81.72786 10057 ft 309 kts 255°
2026-04-22 14:40 28.39908 -81.75126 9922 ft 299 kts 255°
2026-04-22 14:40 28.39429 -81.77376 9772 ft 287 kts 255°
2026-04-22 14:41 28.38961 -81.79573 9671 ft 285 kts 255°
2026-04-22 14:41 28.38496 -81.81752 9537 ft 284 kts 255°
2026-04-22 14:41 28.38029 -81.83941 9401 ft 284 kts 255°
2026-04-22 14:41 28.37565 -81.86110 9266 ft 283 kts 255°
2026-04-22 14:42 28.37101 -81.88284 9132 ft 284 kts 255°
2026-04-22 14:42 28.36634 -81.90466 8999 ft 283 kts 255°
2026-04-22 14:42 28.36173 -81.92648 8860 ft 283 kts 258°
2026-04-22 14:42 28.36012 -81.94868 8729 ft 283 kts 269°
2026-04-22 14:43 28.36028 -81.97086 8607 ft 283 kts 270°
2026-04-22 14:43 28.36058 -81.99320 8484 ft 283 kts 270°
2026-04-22 14:43 28.36083 -82.01565 8353 ft 282 kts 270°
2026-04-22 14:43 28.36103 -82.03765 8227 ft 282 kts 270°
2026-04-22 14:44 28.36122 -82.05988 8086 ft 281 kts 270°
2026-04-22 14:44 28.36140 -82.08229 7967 ft 281 kts 270°
2026-04-22 14:44 28.36158 -82.10430 7855 ft 281 kts 270°
2026-04-22 14:44 28.36175 -82.12664 7742 ft 282 kts 270°
2026-04-22 14:45 28.36192 -82.14868 7609 ft 281 kts 270°
2026-04-22 14:45 28.36209 -82.17078 7475 ft 281 kts 270°
2026-04-22 14:45 28.36225 -82.19292 7354 ft 281 kts 270°
2026-04-22 14:45 28.36241 -82.21513 7231 ft 280 kts 270°
2026-04-22 14:46 28.36169 -82.23711 7095 ft 279 kts 257°
2026-04-22 14:46 28.35374 -82.25713 6961 ft 278 kts 230°
2026-04-22 14:46 28.34043 -82.27296 6849 ft 276 kts 220°
2026-04-22 14:46 28.32615 -82.28706 6734 ft 274 kts 218°
2026-04-22 14:47 28.31149 -82.30138 6597 ft 275 kts 223°
2026-04-22 14:47 28.30129 -82.31973 6462 ft 279 kts 250°
2026-04-22 14:47 28.29691 -82.34119 6348 ft 281 kts 260°
2026-04-22 14:47 28.29414 -82.36319 6224 ft 281 kts 262°
2026-04-22 14:48 28.29164 -82.38502 6099 ft 280 kts 262°
2026-04-22 14:48 28.28916 -82.40673 6009 ft 271 kts 263°
2026-04-22 14:48 28.28832 -82.42760 5997 ft 258 kts 270°
2026-04-22 14:48 28.28850 -82.44743 5962 ft 247 kts 271°
2026-04-22 14:49 28.28875 -82.46656 5775 ft 243 kts 271°
2026-04-22 14:49 28.28881 -82.48560 5686 ft 234 kts 265°
2026-04-22 14:49 28.28376 -82.50206 5653 ft 219 kts 229°
2026-04-22 14:49 28.27275 -82.51365 5669 ft 211 kts 215°
2026-04-22 14:50 28.26087 -82.52296 5470 ft 206 kts 206°
2026-04-22 14:50 28.24798 -82.52914 5184 ft 199 kts 191°
2026-04-22 14:50 28.23452 -82.53206 4914 ft 193 kts 182°
2026-04-22 14:50 28.22132 -82.53327 4653 ft 189 kts 178°
2026-04-22 14:51 28.20828 -82.53390 4396 ft 186 kts 176°
2026-04-22 14:51 28.19531 -82.53437 4138 ft 184 kts 176°
2026-04-22 14:51 28.18258 -82.53481 3885 ft 182 kts 176°
2026-04-22 14:51 28.16993 -82.53526 3632 ft 180 kts 176°
2026-04-22 14:52 28.15779 -82.53570 3386 ft 170 kts 176°
2026-04-22 14:52 28.14617 -82.53611 3149 ft 163 kts 176°
2026-04-22 14:52 28.13508 -82.53650 2926 ft 150 kts 175°
2026-04-22 14:52 28.12485 -82.53684 2718 ft 145 kts 175°
2026-04-22 14:53 28.11476 -82.53718 2507 ft 143 kts 175°
2026-04-22 14:53 28.10482 -82.53752 2300 ft 142 kts 175°
2026-04-22 14:53 28.09490 -82.53786 2096 ft 142 kts 175°
2026-04-22 14:53 28.08498 -82.53820 1886 ft 142 kts 175°
2026-04-22 14:54 28.07504 -82.53854 1678 ft 142 kts 175°
2026-04-22 14:54 28.06510 -82.53888 1475 ft 142 kts 175°
2026-04-22 14:54 28.05526 -82.53921 1276 ft 142 kts 176°
2026-04-22 14:54 28.04525 -82.53956 1071 ft 142 kts 176°
2026-04-22 14:55 28.03541 -82.53984 848 ft 142 kts 177°
2026-04-22 14:55 28.02545 -82.54023 638 ft 140 kts 177°
2026-04-22 14:55 28.01568 -82.54058 456 ft 138 kts 178°
2026-04-22 14:55 28.00598 -82.54094 303 ft 140 kts 178°
2026-04-22 14:56 27.99607 -82.54129 100 ft 142 kts 178°
2026-04-22 14:56 27.98638 -82.54154 26 ft 127 kts 182°
2026-04-22 14:56 27.97877 -82.54187 24 ft 86 kts 183°
2026-04-22 14:56 27.97433 -82.54206 20 ft 46 kts 185°
2026-04-22 14:57 27.97200 -82.54212 19 ft 29 kts 180°
2026-04-22 14:57 27.97015 -82.54211 19 ft 12 kts 181°
2026-04-22 14:57 27.96941 -82.54201 19 ft 6 kts 149°
2026-04-22 14:57 27.96925 -82.54156 19 ft 6 kts 85°
2026-04-22 14:58 27.96938 -82.54105 19 ft 6 kts 47°
2026-04-22 14:58 27.96978 -82.54092 19 ft 4 kts
2026-04-22 14:58 27.96987 -82.54091 19 ft 4 kts
2026-04-22 14:59 27.97024 -82.54088 19 ft 6 kts
2026-04-22 14:59 27.97087 -82.54084 19 ft 11 kts
2026-04-22 14:59 27.97112 -82.54082 19 ft 11 kts
2026-04-22 15:00 27.97147 -82.54081 19 ft 11 kts
2026-04-22 15:00 27.97224 -82.54079 20 ft 10 kts
2026-04-22 15:00 27.97287 -82.54077 20 ft 8 kts
2026-04-22 15:00 27.97342 -82.54076 21 ft 7 kts
2026-04-22 15:01 27.97392 -82.54074 22 ft 7 kts
2026-04-22 15:01 27.97427 -82.54073 22 ft 4 kts
2026-04-22 15:01 27.97474 -82.54072 22 ft 8 kts
2026-04-22 15:01 27.97538 -82.54069 22 ft 9 kts
2026-04-22 15:02 27.97580 -82.54028 23 ft 9 kts 71°
2026-04-22 15:02 27.97586 -82.53949 24 ft 9 kts 88°
2026-04-22 15:02 27.97583 -82.53889 24 ft 5 kts 103°
2026-04-22 15:02 27.97566 -82.53846 24 ft 5 kts 124°
2026-04-22 15:03 27.97537 -82.53796 25 ft 8 kts 123°
2026-04-22 15:03 27.97503 -82.53737 25 ft 8 kts 123°
2026-04-22 15:03 27.97470 -82.53677 25 ft 5 kts 119°
2026-04-22 15:03 27.97470 -82.53635 25 ft 5 kts 62°
2026-04-22 15:04 27.97477 -82.53625 25 ft 0 kts 47°
2026-04-22 15:04 27.97488 -82.53616 25 ft 3 kts 31°
2026-04-22 15:04 27.97504 -82.53610 25 ft 0 kts
2026-04-22 15:04 27.97524 -82.53611 25 ft 4 kts 353°
2026-04-22 15:05 27.97531 -82.53612 25 ft 0 kts 352°